Soerstokken current weather conditions

sailwx.info

Wind from 320 at 6 knots

Air temperature 7.0° C
Visibility: greater than 5.4 NM
Dewpoint 7.0° C

Last reported at 2017-Jan-20 18:50 UTC.
Time now 2017-Jan-21 02:19 UTC

Location: N 59°48' E 005°20'.
View on Google Maps.

See reports from other nearby stations

  
Tides and Currents Weather Stations Pressure Air Temp Water Temp Dewpoint Dewpoint Depression Visibility Wind Speed Wind Dir Waves Ship Positions
date/time (UTC)wind fromknots sea level pressurealtimeterstation pressurevisibilityair tempwater tempwave heightnotes
2017-Jan-20 18:50 320 6 5.4 7.0
2017-Jan-20 17:50 310 6 5.4 7.0 Light drizzle.
2017-Jan-20 17:20 310 7 4.9 7.0 Light drizzle.
2017-Jan-20 16:20 310 8 2.7 8.0 Light drizzle. Mist.
2017-Jan-20 15:50 290 6 2.4 8.0 Light drizzle. Mist.
2017-Jan-20 15:20 290 6 2.2 8.0 Light drizzle. Mist.
2017-Jan-20 14:50 300 6 2.2 8.0 Light drizzle. Mist.
2017-Jan-20 14:20 290 6 2.7 8.0 Light drizzle. Mist.
2017-Jan-20 13:50 280 7 2.7 8.0 Light drizzle. Mist.
2017-Jan-20 12:50 280 7 1.6 8.0 Drizzle. Mist.
2017-Jan-20 12:20 280 9 2.7 8.0 Light drizzle. Mist.
2017-Jan-20 11:50 280 7 2.2 8.0 Light drizzle. Mist.
2017-Jan-20 11:20 280 8 5.4 8.0 Mist.
2017-Jan-20 10:50 270 11 5.4 8.0 Light drizzle. Mist.
2017-Jan-20 10:20 270 9 5.4 8.0 Light rain drizzle.
2017-Jan-20 09:20 250 6 5.4 7.0
2017-Jan-20 08:50 250 6 5.4 7.0
2017-Jan-20 08:20 270 6 5.4 7.0
2017-Jan-20 07:50 250 7 5.4 7.0
2017-Jan-20 07:20 250 7 5.4 7.0
2017-Jan-19 19:20 250 7 5.4 8.0
2017-Jan-19 18:50 260 8 5.4 8.0
2017-Jan-19 18:20 250 9 5.4 8.0 Light rain showers.
2017-Jan-19 17:50 260 7 5.4 8.0
2017-Jan-19 17:20 260 8 4.9 8.0
2017-Jan-19 16:50 270 8 4.9 8.0
2017-Jan-19 16:20 270 8 3.8 8.0 Light drizzle.
2017-Jan-19 15:50 270 9 2.2 8.0 Light drizzle. Mist.
2017-Jan-19 15:20 270 9 2.2 8.0 Light rain drizzle. Mist.
2017-Jan-19 14:50 270 9 2.7 8.0 Light drizzle. Mist.
2017-Jan-19 14:20 270 11 2.7 8.0 Light drizzle. Mist.
2017-Jan-19 13:50 270 11 4.3 8.0 Light drizzle.
2017-Jan-19 12:50 280 6 2.7 8.0 Light drizzle. Mist.
2017-Jan-19 12:20 290 6 2.7 8.0 Light drizzle. Mist.
2017-Jan-19 11:50 280 5 2.2 7.0 Light drizzle. Mist.
2017-Jan-19 11:20 280 9 5.4 7.0 Light drizzle.
2017-Jan-19 10:50 270 13 5.4 8.0
2017-Jan-19 09:50 280 12 5.4 8.0
2017-Jan-19 09:20 270 8 5.4 8.0
2017-Jan-19 08:20 260 11 4.9 8.0 Light rain drizzle.
2017-Jan-19 07:50 260 9 3.2 7.0 Light drizzle.
2017-Jan-19 07:20 260 12 5.4 7.0 Light drizzle.
2017-Jan-19 05:50 240 13 4.9 7.0 Light drizzle.
2017-Jan-19 05:20 240 11 2.2 7.0 Drizzle. Mist.